Weather History for Oakes, ND

Change the Weather History Date:

Monday, December 3, 2012

  Actual Average (KABR) Record (KABR)
Temperature  
Mean Temperature 39 °F 20 °F  
Max Temperature 50 °F 30 °F 63 °F (1941)
Min Temperature 28 °F 10 °F -18 °F (1905)
Degree Days  
Heating Degree Days 26 45  
Month to date heating degree days 134  
Since 1 July heating degree days 2097  
Cooling Degree Days 0 0  
Month to date cooling degree days 0  
Year to date cooling degree days 525  
Moisture  
Dew Point 31 °F    
Average Humidity 63    
Maximum Humidity 93    
Minimum Humidity 40    
Precipitation  
Precipitation 0.03 in 0.01 in 0.58 in (1933)
Month to date precipitation 0.05  
Year to date precipitation 21.25  
Snow  
Snow 0.00 in - - ()
Month to date snowfall  
Since 1 July snowfall  
Snow Depth -    
Sea Level Pressure  
Sea Level Pressure 29.64 in    
Wind  
Wind Speed 19 mph (West)    
Max Wind Speed 33 mph    
Max Gust Speed 40 mph    
Visibility 10 miles    
Events Rain    
T = Trace of Precipitation, MM = Missing Value Source: NWS Daily Summary

Daily Weather History Graph

Daily Weather History Graph

Search for Another Location

Airport:

Trip Planner

Search our weather history database for the weather conditions in past years. The results will help you decide how hot, cold, wet, or windy it might be!

Date:

Astronomy

Dec. 03, 2012 Rise Set
Actual Time 7:57 AM CST 4:47 PM CST
Civil Twilight 7:23 AM CST 5:21 PM CST
Nautical Twilight 6:45 AM CST 5:59 PM CST
Astronomical Twilight 6:09 AM CST 6:35 PM CST
Moon 9:44 PM CST (12/3) 11:13 AM CST (12/3)
Length of Visible Light 9h 58m
Length of Day
8h 50m
Waning Gibbous, 78% of the Moon is Illuminated
Dec 3
Waning Gibbous
Dec 6
Last Quarter
Dec 13
New
Dec 19
First Quarter
Dec 28
Full

Hourly Weather History & Observations

Time (CST) Temp. Windchill Dew Point Humidity Pressure Visibility Wind Dir Wind Speed Gust Speed Precip Events Conditions
12:15 AM 50.0 °F - 35.6 °F 58% 29.39 in 10.0 mi South 21.9 mph 29.9 mph N/A   Clear
12:35 AM 50.0 °F - 35.6 °F 58% 29.39 in 10.0 mi South 23.0 mph 31.1 mph N/A   Clear
12:55 AM 50.0 °F - 35.6 °F 58% 29.39 in 10.0 mi South 21.9 mph 29.9 mph N/A   Clear
1:15 AM 50.0 °F - 35.6 °F 58% 29.38 in 10.0 mi South 21.9 mph 26.5 mph N/A   Clear
1:35 AM 50.0 °F - 35.6 °F 58% 29.38 in 10.0 mi South 23.0 mph 28.8 mph N/A   Clear
1:55 AM 50.0 °F - 35.6 °F 58% 29.37 in 10.0 mi South 23.0 mph 34.5 mph N/A   Clear
2:15 AM 50.0 °F - 35.6 °F 58% 29.37 in 10.0 mi South 25.3 mph 33.4 mph N/A   Clear
2:35 AM 50.0 °F - 35.6 °F 58% 29.37 in 10.0 mi South 21.9 mph 31.1 mph N/A   Clear
2:55 AM 48.2 °F - 35.6 °F 62% 29.37 in 10.0 mi South 18.4 mph - N/A   Clear
3:15 AM 48.2 °F - 35.6 °F 62% 29.37 in 10.0 mi South 18.4 mph - N/A   Clear
3:35 AM 48.2 °F - 35.6 °F 62% 29.36 in 10.0 mi South 20.7 mph - N/A   Clear
3:55 AM 46.4 °F 40.1 °F 35.6 °F 66% 29.36 in 10.0 mi South 15.0 mph - N/A   Clear
4:15 AM 46.4 °F 40.1 °F 35.6 °F 66% 29.37 in 10.0 mi South 15.0 mph - N/A   Clear
4:35 AM 44.6 °F 38.4 °F 35.6 °F 71% 29.37 in 10.0 mi South 12.7 mph - N/A   Clear
4:55 AM 44.6 °F 38.4 °F 35.6 °F 71% 29.39 in 10.0 mi SSW 12.7 mph - N/A   Clear
5:15 AM 44.6 °F 39.2 °F 35.6 °F 71% 29.40 in 10.0 mi SW 10.4 mph - N/A   Clear
5:35 AM 42.8 °F 36.6 °F 35.6 °F 76% 29.41 in 10.0 mi WSW 11.5 mph - N/A   Clear
6:35 AM 46.4 °F 39.5 °F 35.6 °F 66% 29.44 in 10.0 mi WNW 17.3 mph 21.9 mph N/A   Clear
6:55 AM 48.2 °F - 37.4 °F 66% 29.45 in 10.0 mi WNW 19.6 mph 26.5 mph N/A   Clear
7:15 AM 48.2 °F - 39.2 °F 71% 29.46 in 10.0 mi NW 19.6 mph 33.4 mph N/A   Clear
7:35 AM 48.2 °F - 41.0 °F 76% 29.48 in 10.0 mi WNW 16.1 mph 25.3 mph N/A   Clear
7:55 AM 46.4 °F 39.5 °F 42.8 °F 87% 29.50 in 10.0 mi WNW 17.3 mph 26.5 mph N/A Rain Light Rain
8:15 AM 46.4 °F 38.5 °F 42.8 °F 87% 29.52 in 10.0 mi WNW 21.9 mph 29.9 mph N/A Rain Light Rain
8:35 AM 44.6 °F 36.4 °F 42.8 °F 93% 29.54 in 8.0 mi WNW 20.7 mph 29.9 mph 0.01 in Rain Light Rain
9:15 AM 44.6 °F 36.9 °F 39.2 °F 81% 29.58 in 7.0 mi WNW 18.4 mph - 0.01 in Rain Light Rain
9:35 AM 44.6 °F 37.4 °F 39.2 °F 81% 29.58 in 10.0 mi WNW 16.1 mph - 0.02 in Rain Light Rain
9:55 AM 44.6 °F 37.8 °F 39.2 °F 81% 29.60 in 10.0 mi WNW 15.0 mph - 0.02 in   Clear
10:15 AM 44.6 °F 36.9 °F 37.4 °F 76% 29.61 in 10.0 mi WNW 18.4 mph 23.0 mph N/A   Partly Cloudy
10:35 AM 44.6 °F 36.9 °F 37.4 °F 76% 29.64 in 10.0 mi WNW 18.4 mph 23.0 mph N/A   Partly Cloudy
10:55 AM 44.6 °F 36.9 °F 35.6 °F 71% 29.64 in 10.0 mi WNW 18.4 mph 23.0 mph N/A   Clear
11:15 AM 46.4 °F 38.3 °F 33.8 °F 62% 29.66 in 10.0 mi WNW 23.0 mph 28.8 mph N/A   Clear
11:35 AM 46.4 °F 37.5 °F 33.8 °F 62% 29.64 in 10.0 mi West 27.6 mph 35.7 mph N/A   Clear
11:55 AM 48.2 °F - 32.0 °F 54% 29.64 in 10.0 mi West 27.6 mph 39.1 mph N/A   Clear
12:15 PM 48.2 °F - 32.0 °F 54% 29.65 in 10.0 mi West 27.6 mph 38.0 mph N/A   Clear
12:35 PM 50.0 °F - 30.2 °F 47% 29.66 in 10.0 mi WNW 24.2 mph 35.7 mph N/A   Clear
1:15 PM 50.0 °F - 28.4 °F 43% 29.66 in 10.0 mi West 28.8 mph 36.8 mph N/A   Clear
1:35 PM 50.0 °F - 28.4 °F 43% 29.67 in 10.0 mi WNW 25.3 mph 33.4 mph N/A   Clear
1:55 PM 50.0 °F - 28.4 °F 43% 29.67 in 10.0 mi WNW 27.6 mph 38.0 mph N/A   Clear
2:15 PM 50.0 °F - 26.6 °F 40% 29.69 in 10.0 mi West 33.4 mph 40.3 mph N/A   Clear
2:35 PM 50.0 °F - 26.6 °F 40% 29.70 in 10.0 mi WNW 27.6 mph 40.3 mph N/A   Clear
2:55 PM 50.0 °F - 26.6 °F 40% 29.70 in 10.0 mi West 24.2 mph 34.5 mph N/A   Clear
3:15 PM 50.0 °F - 26.6 °F 40% 29.70 in 10.0 mi West 27.6 mph 35.7 mph N/A   Clear
3:35 PM 50.0 °F - 26.6 °F 40% 29.73 in 10.0 mi West 20.7 mph 26.5 mph N/A   Clear
3:55 PM 48.2 °F - 26.6 °F 43% 29.73 in 10.0 mi West 15.0 mph 23.0 mph N/A   Clear
4:15 PM 48.2 °F - 26.6 °F 43% 29.75 in 10.0 mi West 16.1 mph 21.9 mph N/A   Clear
4:35 PM 46.4 °F 40.7 °F 26.6 °F 46% 29.76 in 10.0 mi West 12.7 mph 18.4 mph N/A   Clear
4:55 PM 44.6 °F 38.8 °F 26.6 °F 49% 29.77 in 10.0 mi WSW 11.5 mph 17.3 mph N/A   Clear
5:15 PM 41.0 °F 35.8 °F 24.8 °F 53% 29.78 in 10.0 mi SW 8.1 mph - N/A   Clear
5:35 PM 41.0 °F 34.3 °F 26.6 °F 57% 29.79 in 10.0 mi SW 11.5 mph - N/A   Clear
5:55 PM 41.0 °F 33.5 °F 26.6 °F 57% 29.80 in 10.0 mi WSW 13.8 mph - N/A   Clear
6:15 PM 41.0 °F 33.5 °F 26.6 °F 57% 29.81 in 10.0 mi WSW 13.8 mph - N/A   Clear
6:35 PM 41.0 °F 34.3 °F 26.6 °F 57% 29.83 in 10.0 mi WSW 11.5 mph - N/A   Clear
6:55 PM 41.0 °F 33.5 °F 26.6 °F 57% 29.84 in 10.0 mi West 13.8 mph 18.4 mph N/A   Clear
7:15 PM 41.0 °F 33.5 °F 26.6 °F 57% 29.85 in 10.0 mi West 13.8 mph - N/A   Clear
7:35 PM 39.2 °F 31.6 °F 26.6 °F 61% 29.86 in 10.0 mi West 12.7 mph - N/A   Clear
7:55 PM 37.4 °F 29.3 °F 26.6 °F 65% 29.87 in 10.0 mi West 12.7 mph - N/A   Clear
8:15 PM 35.6 °F 27.5 °F 26.6 °F 70% 29.89 in 10.0 mi WNW 11.5 mph - N/A   Clear
8:35 PM 33.8 °F 25.8 °F 26.6 °F 75% 29.90 in 10.0 mi WNW 10.4 mph - N/A   Unknown
8:55 PM 32.0 °F 24.2 °F 26.6 °F 80% 29.91 in 10.0 mi WNW 9.2 mph - N/A   Unknown
9:15 PM 32.0 °F 23.0 °F 24.8 °F 75% 29.92 in 10.0 mi West 11.5 mph - N/A   Unknown
9:35 PM 35.6 °F 25.9 °F 24.8 °F 65% 29.92 in 10.0 mi West 16.1 mph - N/A   Unknown
9:55 PM 33.8 °F 23.9 °F 24.8 °F 70% 29.92 in 10.0 mi West 15.0 mph - N/A   Unknown
10:15 PM 32.0 °F 21.6 °F 24.8 °F 75% 29.93 in 10.0 mi West 15.0 mph - N/A   Unknown
10:35 PM 32.0 °F 21.2 °F 24.8 °F 75% 29.93 in 10.0 mi West 16.1 mph - N/A   Unknown
10:55 PM 32.0 °F 23.0 °F 24.8 °F 75% 29.94 in 10.0 mi WNW 11.5 mph - N/A   Unknown
11:15 PM 30.2 °F 21.3 °F 24.8 °F 80% 29.95 in 10.0 mi WNW 10.4 mph - N/A   Unknown
11:35 PM 28.4 °F 20.4 °F 24.8 °F 86% 29.96 in 10.0 mi West 8.1 mph - N/A   Unknown
11:55 PM 28.4 °F 21.2 °F 23.0 °F 80% 29.97 in 10.0 mi NW 6.9 mph - N/A   Unknown